N8DH Weather Reports


Display with metric or nautical units.
time (UTC)temp
F
wind
direction
speed
MPH
gust
MPH
rain 1hr
in
rain 24hr
in
rain mn
in
humidity
%
barometer
mb
20260906100056 55 322 0.0 2.0 0.00 0.01 0.00 96 1009.7
20260906094606 56 322 0.0 2.0 0.00 0.01 0.00 96 1009.6
20260906093141 56 322 0.0 0.0 0.00 0.01 0.00 96 1009.6
20260906091642 56 322 0.0 0.0 0.00 0.01 0.00 96 1009.4
20260906090018 56 322 0.0 0.0 0.00 0.01 0.00 96 1009.6
20260906084607 56 322 0.0 0.0 0.00 0.01 0.00 96 1009.6
20260906083143 57 322 0.0 0.0 0.00 0.01 0.00 96 1009.6
20260906081528 57 322 0.0 0.0 0.00 0.01 0.00 95 1009.2
20260906074503 57 322 0.0 0.0 0.00 0.01 0.00 95 1009.0
20260906073027 57 322 0.0 1.0 0.00 0.01 0.00 95 1008.9
20260906071548 58 322 0.0 1.0 0.00 0.01 0.00 95 1009.0
20260906070138 58 322 0.0 1.0 0.00 0.01 0.00 95 1008.7
20260906064535 58 322 0.0 2.0 0.00 0.01 0.00 95 1008.6
20260906063107 59 322 0.0 0.0 0.00 0.01 0.00 95 1008.7
20260906061510 59 322 0.0 2.0 0.00 0.01 0.00 95 1008.8
20260906060049 59 322 0.0 0.0 0.00 0.01 0.00 95 1008.9
20260906054632 59 322 0.0 2.0 0.00 0.01 0.00 95 1008.8
20260906053135 59 322 0.0 2.0 0.00 0.01 0.00 95 1008.6
20260906051529 59 322 0.0 2.0 0.00 0.01 0.00 95 1008.8
20260906050107 59 322 0.0 2.0 0.00 0.01 0.00 95 1008.8
20260906044519 59 322 0.0 3.0 0.00 0.07 0.00 95 1008.9
20260906043059 59 323 0.0 2.0 0.00 0.07 0.00 95 1008.9
20260906041519 59 323 0.0 0.0 0.00 0.07 0.00 95 1008.7
20260906034545 60 323 0.0 2.0 0.00 0.07 0.07 93 1008.6
20260906033131 60 323 0.0 2.0 0.00 0.07 0.07 93 1008.6
20260906031641 60 323 0.0 2.0 0.00 0.07 0.07 93 1008.7
20260906030022 61 323 0.0 0.0 0.00 0.07 0.07 92 1008.6
20260906024608 61 323 0.0 0.0 0.00 0.07 0.07 92 1008.6
20260906023024 61 323 0.0 2.0 0.00 0.07 0.07 92 1008.5
20260906021615 62 323 0.0 2.0 0.00 0.07 0.07 91 1008.2
20260906020141 62 360 0.0 0.0 0.00 0.07 0.07 90 1008.2
20260906014516 63 360 0.0 2.0 0.00 0.07 0.07 87 1008.1
20260906013109 63 360 0.0 2.0 0.00 0.07 0.07 87 1007.9
20260906011635 63 360 0.0 0.0 0.00 0.07 0.07 88 1007.9
20260906010029 63 360 0.0 2.0 0.00 0.07 0.07 88 1007.9
20260906004604 64 360 0.0 0.0 0.00 0.07 0.07 85 1007.8
20260906003045 65 360 0.0 2.0 0.00 0.07 0.07 85 1007.9
20260906001640 67 15 0.0 2.0 0.00 0.07 0.07 80 1007.7
20260906000027 69 360 0.0 3.0 0.00 0.07 0.07 73 1007.6
20260905234607 70 14 1.0 3.0 0.00 0.07 0.07 71 1007.5
20260905233020 71 5 2.0 5.0 0.00 0.07 0.07 70 1007.5
20260905231543 71 47 1.0 5.0 0.00 0.07 0.07 75 1007.4
20260905230105 71 20 1.0 5.0 0.00 0.07 0.07 77 1007.3
20260905224531 71 30 2.0 5.0 0.00 0.07 0.07 74 1007.3
20260905223058 72 15 2.0 9.0 0.00 0.07 0.07 76 1007.0
20260905221506 72 306 2.0 8.0 0.00 0.07 0.07 75 1007.0
20260905220022 73 9 4.0 10.0 0.00 0.07 0.07 72 1006.8
20260905214556 73 355 3.0 8.0 0.00 0.07 0.07 75 1006.6
20260905213140 72 349 2.0 6.0 0.00 0.07 0.07 77 1006.6
20260905211636 73 11 3.0 5.0 0.00 0.07 0.07 76 1006.6
20260905210024 74 44 3.0 9.0 0.00 0.07 0.07 74 1006.6
20260905204545 74 17 2.0 13.0 0.00 0.07 0.07 75 1006.7
20260905203122 75 336 2.0 8.0 0.00 0.07 0.07 76 1006.7
20260905201639 75 60 3.0 7.0 0.00 0.07 0.07 75 1006.7
20260905200141 75 360 3.0 8.0 0.00 0.07 0.07 73 1006.7
20260905194536 75 51 2.0 6.0 0.00 0.07 0.07 77 1006.8
20260905193115 76 360 3.0 7.0 0.00 0.07 0.07 75 1006.8
20260905191514 77 360 4.0 8.0 0.00 0.07 0.07 78 1006.7
20260905190100 77 68 2.0 7.0 0.00 0.07 0.07 80 1006.6
20260905184636 76 27 3.0 9.0 0.00 0.07 0.07 81 1006.7
20260905183005 77 45 3.0 9.0 0.00 0.07 0.07 82 1006.8
20260905181542 76 313 2.0 8.0 0.00 0.07 0.07 84 1006.9
20260905180112 76 32 4.0 8.0 0.00 0.07 0.07 82 1006.8
20260905174647 76 45 4.0 6.0 0.00 0.09 0.07 85 1006.9
20260905173059 76 73 2.0 6.0 0.00 0.09 0.07 86 1007.0
20260905171635 75 14 2.0 7.0 0.00 0.09 0.07 88 1007.0
20260905170012 76 5 3.0 7.0 0.00 0.09 0.07 88 1007.1
20260905164542 75 44 4.0 11.0 0.00 0.09 0.07 88 1007.0
20260905163106 76 33 1.0 2.0 0.00 0.09 0.07 87 1007.0
20260905161506 76 42 0.0 2.0 0.00 0.09 0.07 89 1007.2
20260905160020 75 51 0.0 2.0 0.00 0.11 0.07 89 1007.2
20260905154556 75 256 0.0 2.0 0.00 0.11 0.07 89 1007.2
20260905153142 75 39 0.0 2.0 0.00 0.11 0.07 90 1007.2
20260905151522 74 159 0.0 2.0 0.00 0.11 0.07 91 1007.1
20260905150106 74 163 0.0 2.0 0.00 0.11 0.07 92 1007.0
20260905144637 74 175 0.0 2.0 0.00 0.12 0.07 91 1006.8
20260905143052 74 67 0.0 2.0 0.00 0.12 0.07 90 1006.8
20260905141637 73 24 0.0 3.0 0.00 0.12 0.07 92 1006.6
20260905140052 73 74 1.0 3.0 0.00 0.12 0.07 93 1006.5
20260905134637 72 153 0.0 2.0 0.00 0.16 0.07 96 1006.8
20260905133046 72 121 0.0 1.0 0.01 0.16 0.07 96 1006.8
20260905131620 72 94 0.0 2.0 0.01 0.16 0.07 97 1007.0
20260905130024 71 142 0.0 2.0 0.01 0.21 0.07 97 1007.1
20260905124603 70 268 0.0 1.0 0.01 0.21 0.07 97 1006.9
20260905123039 70 229 0.0 2.0 0.00 0.20 0.06 97 1006.8
20260905121600 69 228 0.0 2.0 0.00 0.20 0.06 97 1006.8
20260905120013 69 225 0.0 2.0 0.00 0.21 0.06 97 1006.8
20260905114604 69 225 0.0 2.0 0.00 0.21 0.06 97 1006.4
20260905113038 69 288 0.0 2.0 0.00 0.21 0.06 97 1006.2
20260905111611 69 288 0.0 2.0 0.00 0.21 0.06 97 1006.2
20260905110145 69 355 0.0 2.0 0.00 0.21 0.06 97 1006.3
20260905104536 69 205 0.0 2.0 0.00 0.21 0.06 97 1006.6
20260905103108 69 205 0.0 0.0 0.00 0.21 0.06 97 1007.0
20260905101539 69 205 0.0 2.0 0.00 0.21 0.06 97 1007.1